Regional Weather Roundup
Issued by NWS

Home | Current Version | Previous Version | Graphics & Text | Print | Product List | Glossary On
Versions: 1 2 3 4 5 6 7 8 9 10 11 12 13 14 15 16 17 18 19 20 21 22 23 24 25 26 27 28 29 30 31 32 33 34 35 36 37 38 39 40 41 42 43 44 45 46 47 48 49 50
000
ASUS43 KLOT 291908
RWRIL

ILLINOIS REGIONAL WEATHER ROUNDUP
NATIONAL WEATHER SERVICE CHICAGO/ROMEOVILLE IL
200 PM CDT FRI APR 29 2016

NOTE: "FAIR" INDICATES FEW OR NO CLOUDS BELOW 12,000 FEET WITH NO
SIGNIFICANT WEATHER AND/OR OBSTRUCTIONS TO VISIBILITY.

* THESE STATIONS ARE NOT UNDER NWS QUALITY CONTROL. THEY ALSO MAY NOT
  REPORT WEATHER SUCH AS PRECIPITATION OR FOG.

ILZ001-002-007-009-015-016-024-292000-
NORTHWEST ILLINOIS

CITY           SKY/WX    TMP DP  RH WIND       PRES   REMARKS
MOLINE         CLOUDY    51  40  65 NE9       30.09F
STERLING*      CLOUDY    46  41  81 E8        30.10F
SAVANNA*       CLOUDY    49  40  70 NE5       30.11F
$$

ILZ003-004-008-010-011-017-018-292000-
NORTH CENTRAL ILLINOIS

CITY           SKY/WX    TMP DP  RH WIND       PRES   REMARKS
ROCKFORD       CLOUDY    48  38  68 E7        30.14S
FREEPORT*      CLOUDY    46  38  76 N5        30.13F
ROCHELLE*      CLOUDY    46  39  76 E5        30.12S
DE KALB*       CLOUDY    46  41  81 NE8       30.11F
$$

ILZ005-006-012>014-019>023-292000-
NORTHEAST ILLINOIS

CITY           SKY/WX    TMP DP  RH WIND       PRES   REMARKS
CHICAGO-OHARE  CLOUDY    49  38  65 N7        30.10F
CHICAGO-MIDWAY CLOUDY    50  38  63 NE9       30.10S
AURORA         CLOUDY    48  40  73 CALM      30.10F
LANSING*       CLOUDY    47  40  75 NE9       30.11F
JOLIET*        CLOUDY    50  42  72 CALM      30.10F
WAUKEGAN       CLOUDY    46  38  73 NE8       30.12R
DUPAGE AIRPORT CLOUDY    46  38  73 NE8       30.10S
KANKAKEE*      CLOUDY    51  43  74 N9        30.09F
WHEELING       CLOUDY    47  38  71 N6        30.13S
MORRIS*        CLOUDY    48  41  74 CALM      30.09F
ROMEOVILLE*    CLOUDY    48  39  70 E5        30.09F
NORTHERLY ISL    N/A     44  39  82 N12         N/A
NORTHERLY ISL    N/A     44  39  82 N12         N/A
$$

LMZ740>746-292000-
SOUTHERN LAKE MICHIGAN

STATION/POSITION SKY/WX   TEMP    WIND        PRES    VSBY  WAVE
                          AIR SEA DIR/SP/G                  HT/PER
                          (F)     (DEG/KT/KT) (MB)    (MI)  (FT/S)
SOUTHERN BUOY              40 40   40/ 10/ 12 1019.2          1/ 3
HARRISON CRIB              42     350/ 11/ 12   N/A
BURNHAM HARBOR             44     350/  9/ 15   N/A
CALUMET HARBOR             43     350/ 13/ 16 1019.1R
BURNS HARBOR               42     340/  7/ 14 1020.3R
MICHIGAN CITY              42     320/  9/ 10   N/A
ST. JOSEPH                 42 46   CALM  / 12   N/A           2/ 3
$$

ILZ025>027-034>036-040-047-049-050-058-095>099-292000-
WEST-CENTRAL ILLINOIS

CITY           SKY/WX    TMP DP  RH WIND       PRES   REMARKS
QUINCY         CLOUDY    54  47  77 NE9       30.06F
GALESBURG*     CLOUDY    51  43  75 NE7       30.09S
MACOMB*        CLOUDY    52  45  77 CALM      30.11R
JACKSONVILLE*  CLOUDY    56  49  78 NE9       30.07F
PITTSFIELD*    CLOUDY    56  51  82 NE8       30.07F
$$

ILZ028>032-037-038-041>044-048-051>054-059>061-292000-
CENTRAL ILLINOIS

CITY           SKY/WX    TMP DP  RH WIND       PRES   REMARKS
PONTIAC        CLOUDY    52  46  82 NE3       30.09S
BLOOMINGTON    CLOUDY    56  47  71 E7        30.09S
DECATUR        CLOUDY    58  49  72 NE6       30.07S
PEORIA         CLOUDY    54  44  69 E7        30.09R
LACON*         CLOUDY    49  41  74 CALM      30.08S
LINCOLN*       CLOUDY    55  47  75 NE5       30.08S
SPRINGFIELD    CLOUDY    57  49  74 NE8       30.08S
TAYLORVILLE    CLOUDY    57  50  77 NE7       30.07S
$$

ILZ033-039-045-046-055>057-062-063-292000-
EAST-CENTRAL ILLINOIS

CITY           SKY/WX    TMP DP  RH WIND       PRES   REMARKS
CHAMPAIGN      CLOUDY    58  48  69 NE6       30.07S
RANTOUL*       CLOUDY    56  47  73 E5        30.08S
MATTOON        CLOUDY    60  50  69 N9        30.05S
PARIS*         PTSUNNY   59  50  72 N5        30.07S
$$

ILZ079-100>102-292000-
SOUTHWEST ILLINOIS

CITY           SKY/WX    TMP DP  RH WIND       PRES   REMARKS
ALTON          CLOUDY    61  50  67 E6        30.05S
BELLEVILLE     CLOUDY    62  53  73 E6        30.03S
CAHOKIA*       CLOUDY    62  50  64 E9        30.04R
SPARTA*        CLOUDY    61  53  73 SE5       30.06R
$$

ILZ064>066-069>071-074>076-080>082-084>086-088>090-092>094-292000-
SOUTH-CENTRAL ILLINOIS

CITY           SKY/WX    TMP DP  RH WIND       PRES   REMARKS
CARBONDALE     CLOUDY    64  51  62 E5        30.04R
CAIRO*         LGT RAIN  60  57  90 CALM      30.06R
EFFINGHAM*     CLOUDY    64  52  65 CALM      30.06S
MARION         CLOUDY    64  54  68 E6        30.04F
MT. VERNON     CLOUDY    64  52  63 E5        30.06R
CENTRALIA*     CLOUDY    64  54  69 E5        30.04S
SALEM*         CLOUDY    65  52  62 S3        30.06R
METROPOLIS*    LGT RAIN  64  58  81 CALM      30.05R
$$

ILZ067-068-072-073-078-083-087-091-292000-
SOUTHEAST ILLINOIS

CITY           SKY/WX    TMP DP  RH WIND       PRES   REMARKS
LAWRENCEVILLE  CLOUDY    66  52  60 E6        30.05R
FLORA*         CLOUDY    65  52  62 CALM      30.05S
FAIRFIELD*     CLOUDY    64  52  65 CALM      30.05R
HARRISBURG*    CLOUDY    65  53  65 E6        30.04F
ROBINSON*      CLOUDY    65  51  60 CALM      30.06R
CARMI*         CLOUDY    65  51  60 CALM      30.05S
$$

ABBREVIATIONS USED IN REMARKS
   TC - TEMPERATURE IN CELSIUS
  WCI - WIND CHILL INDEX
   HX - HEAT INDEX
  VSB - VISIBILITY
$$




USA.gov is the U.S. government's official web portal to all federal, state and local government web resources and services.